Location: Kalberh�ni
(46.4610°N, 7.2453°E)
Time: 09:03:03
(UTC+00:00)

Cosmos 1850 Rocket - Visible Passes

Search period start: 28 October 2021 00:00
Search period end: 07 November 2021 00:00
Orbit: 753 x 786 km, 74.0° (Epoch: 27 October)

Date Brightness Start Highest point End Pass type
(mag) Time Alt. Az. Time Alt. Az. Time Alt. Az.
28 Oct 5.3 18:59:05 10° NNW 19:01:59 30° N 19:01:59 30° N visible
28 Oct 6.9 20:41:44 10° NW 20:42:18 12° NW 20:42:18 12° NW visible
29 Oct 5.1 18:22:45 10° N 18:26:22 29° NNE 18:26:22 29° NNE visible
29 Oct 6.2 20:04:43 10° NW 20:06:40 21° NW 20:06:40 21° NW visible
30 Oct 5.3 17:46:36 10° N 17:50:38 21° NE 17:50:48 21° NE visible
30 Oct 5.3 19:27:56 10° NNW 19:31:07 36° NW 19:31:07 36° NW visible
31 Oct 5.7 17:10:44 10° NNE 17:13:39 14° NE 17:15:19 13° ENE visible
31 Oct 4.3 18:51:20 10° NNW 18:55:39 57° N 18:55:39 57° N visible
31 Oct 6.9 20:35:01 10° WNW 20:35:59 13° WNW 20:35:59 13° WNW visible
01 Nov 4.2 18:14:52 10° NNW 18:20:04 48° ENE 18:20:18 48° ENE visible
01 Nov 6.1 19:57:31 10° NW 20:00:39 23° WNW 20:00:39 23° WNW visible
02 Nov 4.8 17:38:32 10° N 17:43:18 31° ENE 17:45:06 25° E visible
02 Nov 5.1 19:20:30 10° NW 19:25:27 41° WSW 19:25:27 41° WSW visible
03 Nov 5.3 17:02:23 10° N 17:06:25 21° NE 17:10:07 11° E visible
03 Nov 4.3 18:43:44 10° NNW 18:49:04 67° WSW 18:50:30 47° S visible
04 Nov 3.9 18:07:07 10° NNW 18:12:30 77° ENE 18:15:53 23° SSE visible
04 Nov 6.7 19:50:51 10° WNW 19:53:54 16° W 19:56:17 12° WSW visible
05 Nov 4.2 17:30:39 10° NNW 17:35:51 49° ENE 17:41:01 10° SE visible
05 Nov 6.1 19:13:19 10° NW 19:17:38 25° W 19:21:55 10° SSW visible
06 Nov 4.8 16:54:18 10° N 16:59:05 32° ENE 17:03:50 10° ESE visible
06 Nov 5.3 18:36:18 10° NW 18:41:17 41° WSW 18:46:14 10° S visible
